"2010-09-19 00:00:00",173101,2.731,93.9,2.177,0.124,13.54,104.9975,12.07,12.81,78.01,0,110.6,13.27,12.86,55.9
"2010-09-19 00:00:30",173102,2.759,93.5,3.504,0.103,13.68,105,12.07,12.84,77.88,0,110.6,13.27,12.87,55.5
"2010-09-19 00:01:00",173103,2.695,88.6,3.54,0.132,13.73,105.0003,12.07,12.87,77.73,0,110.6,13.27,12.87,50.6
"2010-09-19 00:01:30",173104,4.1,92.5,7.923,1.414,16.16,105.0014,12.08,13.02,77.77,0,110.6,13.24,12.87,54.5
"2010-09-19 00:02:00",173105,4.866,97.6,6.634,1.17,17.38,105.0039,12.08,13.09,77.78,0,110.6,13.24,12.88,59.6
"2010-09-19 00:02:30",173106,3.628,92.9,7.191,1.256,15.61,105.0037,12.08,13.13,77.76,0,110.6,13.24,12.88,54.9
"2010-09-19 00:03:00",173107,4.223,93.2,6.495,1.404,15.26,105.0003,12.07,13.07,77.7,0,110.6,13.24,12.87,55.2
"2010-09-19 00:03:30",173108,2.894,83.2,1.546,0.074,12.36,105,12.07,12.91,77.48,0,110.6,13.27,12.87,45.2
"2010-09-19 00:04:00",173109,2.712,84.3,2.252,0.204,11.99,105,12.07,12.9,77.42,0,110.6,13.27,12.87,46.3
"2010-09-19 00:04:30",173110,2.4,80.7,5.033,0.137,11.88,105,12.07,12.91,77.43,0,110.6,13.27,12.87,42.7
"2010-09-19 00:05:00",173111,2.598,81.4,3.544,0.211,12.14,105,12.07,12.89,77.44,0,110.6,13.28,12.87,43.4
"2010-09-19 00:05:30",173112,2.569,85.7,2.401,0.297,12.44,104.9997,12.07,12.89,77.45,0,110.6,13.28,12.87,47.7
"2010-09-19 00:06:00",173113,2.893,79.39,8.85,0.184,12.5,104.9986,12.07,12.91,77.42,0,110.6,13.28,12.86,41.4
"2010-09-19 00:06:30",173114,3.856,69.26,6.521,1.245,14.44,104.9749,12.01,12.96,77.6,0,110.6,13.24,12.80,31.3
"2010-09-19 00:07:00",173115,3.462,65.87,5.911,1.282,14.58,104.9662,11.99,13,77.77,0,110.6,13.24,12.78,27.9
"2010-09-19 00:07:30",173116,2.361,58.14,3.272,0.251,12.49,104.9473,11.94,12.83,77.76,0,110.6,13.28,12.73,20.1
"2010-09-19 00:08:00",173117,2.618,75.44,4.491,0.214,12.57,104.9324,11.9,12.81,77.84,0,110.6,13.28,12.69,37.4
"2010-09-19 00:08:30",173118,2.981,83.3,3.754,0.514,13.26,104.9327,11.9,12.92,77.94,0,110.6,13.28,12.69,45.3
"2010-09-19 00:09:00",173119,3.857,87.8,6.943,1.381,14.92,104.9539,11.95,12.87,77.75,0,110.6,13.24,12.75,49.8
"2010-09-19 00:09:30",173120,3.038,81,5.408,0.841,14.29,104.9701,12,12.94,77.7,0,110.6,13.24,12.79,43.0
"2010-09-19 00:10:00",173121,3.003,77.79,1.28,0.494,13.28,104.9709,12,12.83,77.49,0,110.6,13.25,12.79,39.8
"2010-09-19 00:10:30",173122,3.901,83.3,5.997,1.339,15.35,104.9765,12.01,13.14,77.7,0,110.6,13.24,12.81,45.3
"2010-09-19 00:11:00",173123,3.798,83.1,6.478,1.227,14.05,104.9978,12.07,12.94,77.45,0,110.6,13.24,12.86,45.1
"2010-09-19 00:11:30",173124,3.338,83,1.494,0.205,12.24,105.0107,12.1,12.93,77.32,0,110.6,13.28,12.89,45.0
"2010-09-19 00:12:00",173125,3.687,86.7,1.854,0.088,11.85,105.0192,12.12,12.89,77.18,0,110.6,13.28,12.92,48.7
"2010-09-19 00:12:30",173126,4.161,90.5,2.59,0.176,12.03,105.0245,12.14,12.91,77,0,110.6,13.27,12.93,52.5
"2010-09-19 00:13:00",173127,4.363,87.7,1.41,0.128,12.3,105.0291,12.15,12.92,76.94,0,110.6,13.27,12.94,49.7
"2010-09-19 00:13:30",173128,4.423,87.1,0.698,0.074,12.68,105.0427,12.18,12.94,76.9,0,110.6,13.27,12.98,49.1
"2010-09-19 00:14:00",173129,4.284,86.2,1.158,0.11,12.97,105.0596,12.22,12.98,76.8,0,110.6,13.27,13.02,48.2
"2010-09-19 00:14:30",173130,3.942,84.2,1.372,0.117,13.28,105.0645,12.24,12.97,76.75,0,110.6,13.27,13.03,46.2
"2010-09-19 00:15:00",173131,4.401,88.5,7.048,1.212,15.38,105.0669,12.24,13.2,76.84,0,110.6,13.24,13.04,50.5
"2010-09-19 00:15:30",173132,5.485,91.5,7.095,1.161,17.55,105.0687,12.25,13.19,76.76,0,110.6,13.24,13.04,53.5
"2010-09-19 00:16:00",173133,3.315,79.97,0.341,0.034,13.5,105.0693,12.25,13.01,76.55,0,110.6,13.27,13.04,42.0
"2010-09-19 00:16:30",173134,3.294,79.15,1.205,0.06,13.01,105.069,12.25,13.01,76.53,0,110.6,13.27,13.04,41.2
"2010-09-19 00:17:00",173135,5.135,94.5,7.939,1.306,16.02,105.0693,12.25,13.23,76.65,0,110.6,13.24,13.04,56.5
"2010-09-19 00:17:30",173136,5.095,92.4,8.11,1.234,16.5,105.0693,12.25,13.26,76.68,0,110.6,13.24,13.04,54.4
"2010-09-19 00:18:00",173137,3.515,79.19,4.971,0.856,12.56,105.0673,12.24,13.01,76.5,0,110.5,13.25,13.04,41.2
"2010-09-19 00:18:30",173138,3.336,81.1,2.975,0.094,11.72,105.0484,12.2,13.02,76.54,0,110.5,13.28,12.99,43.1
"2010-09-19 00:19:00",173139,3.578,84.9,1.643,0.192,11.89,105.047,12.19,13.02,76.47,0,110.5,13.28,12.99,46.9
"2010-09-19 00:19:30",173140,3.445,82.1,0.977,0.089,12.2,105.0529,12.21,13.01,76.46,0,110.5,13.29,13.00,44.1
"2010-09-19 00:20:00",173141,3.414,83.3,0.992,0.123,12.62,105.0642,12.24,13.02,76.37,0,110.5,13.29,13.03,45.3
"2010-09-19 00:20:30",173142,3.209,80.6,1.548,0.083,13.02,105.0693,12.25,13.03,76.3,0,110.5,13.29,13.04,42.6
"2010-09-19 00:21:00",173143,4.475,82.3,5.895,1.354,15.32,105.069,12.25,13.13,76.38,0,110.5,13.25,13.04,44.3
"2010-09-19 00:21:30",173144,4.025,79.89,8.17,1.23,15.3,105.0586,12.22,13.19,76.47,0,110.5,13.25,13.02,41.9
"2010-09-19 00:22:00",173145,3.537,81.6,4.23,0.914,14.35,105.0451,12.19,13.02,76.32,0,110.5,13.25,12.98,43.6
"2010-09-19 00:22:30",173146,3.968,87.3,8.82,1.315,15.26,105.0363,12.17,13.16,76.5,0,110.5,13.25,12.96,49.3
"2010-09-19 00:23:00",173147,3.631,87.8,4.93,1.139,13.88,105.0355,12.16,13.06,76.36,0,110.5,13.25,12.96,49.8
"2010-09-19 00:23:30",173148,4.046,96.2,7.587,1.242,14.97,105.0355,12.16,13.12,76.36,0,110.6,13.25,12.96,58.2
"2010-09-19 00:24:00",173149,3.927,96.8,8.57,1.253,14.54,105.0355,12.16,13.21,76.41,0,110.6,13.25,12.96,58.8
"2010-09-19 00:24:30",173150,3.294,88.9,3.255,0.11,12.31,105.0369,12.17,13.16,76.27,0,110.5,13.29,12.96,50.9
"2010-09-19 00:25:00",173151,3.389,90.5,2.386,0.132,11.61,105.0366,12.17,13.02,76.12,0,110.5,13.29,12.96,52.5
"2010-09-19 00:25:30",173152,3.406,93.2,3.279,0.116,11.81,105.0394,12.17,13.03,75.94,0,110.5,13.29,12.97,55.2
"2010-09-19 00:26:00",173153,3.302,92.7,1.326,0.102,12.2,105.0543,12.21,13.04,75.83,0,110.5,13.29,13.01,54.7
"2010-09-19 00:26:30",173154,3.526,90.9,2.216,0.138,12.54,105.0681,12.25,13.05,75.78,0,110.5,13.29,13.04,52.9
"2010-09-19 00:27:00",173155,3.279,88.4,1.974,0.126,12.91,105.0693,12.25,13.06,75.83,0,110.6,13.29,13.04,50.4
"2010-09-19 00:27:30",173156,4.579,93.5,7.429,1.393,15.43,105.0665,12.24,13.21,75.91,0,110.5,13.25,13.04,55.5
"2010-09-19 00:28:00",173157,3.763,88.9,6.08,1.129,14.97,105.0515,12.2,13.22,75.98,0,110.5,13.25,13.00,50.9
"2010-09-19 00:28:30",173158,3.249,83.8,1.091,0.069,13.52,105.0366,12.17,13.06,75.9,0,110.5,13.29,12.96,45.8
"2010-09-19 00:29:00",173159,3.117,82.5,1.597,0.091,13.56,105.0355,12.16,13.04,75.91,0,110.5,13.29,12.96,44.5
"2010-09-19 00:29:30",173160,3.501,84.9,4.185,0.695,13.74,105.0361,12.16,13.16,75.98,0,110.5,13.25,12.96,46.9
"2010-09-19 00:30:00",173161,5.822,97.5,4.92,0.715,17.99,105.0364,12.17,13.31,76.1,0,110.5,13.25,12.96,59.5
"2010-09-19 00:30:30",173162,5.124,95.2,5.628,1.242,15.76,105.0387,12.17,13.21,76.01,0,110.5,13.25,12.97,57.2
"2010-09-19 00:31:00",173163,3.433,85.7,0.713,0.113,12.02,105.042,12.18,13.03,75.75,0,110.5,13.28,12.97,47.7
"2010-09-19 00:31:30",173164,3.31,91.3,2.465,0.159,11.8,105.0482,12.2,13.04,75.73,0,110.5,13.28,12.99,53.3
"2010-09-19 00:32:00",173165,3.149,91.8,1.33,0.101,11.81,105.0523,12.21,13.05,75.71,0,110.5,13.28,13.00,53.8
"2010-09-19 00:32:30",173166,2.881,91.8,1.43,0.111,12.15,105.0602,12.23,13.06,75.65,0,110.5,13.29,13.02,53.8
"2010-09-19 00:33:00",173167,2.783,99.3,2.459,0.073,12.7,105.0715,12.26,13.06,75.31,0,110.5,13.29,13.05,61.3
"2010-09-19 00:33:30",173168,3.085,100.9,4.318,0.716,13.87,105.095,12.32,13.23,75.06,0,110.5,13.25,13.11,62.9
"2010-09-19 00:34:00",173169,3.734,105.6,5.856,1.267,14.86,105.0976,12.32,13.17,74.72,0,110.5,13.25,13.12,67.6
"2010-09-19 00:34:30",173170,3.675,108.9,6.17,1.265,15.57,105.1206,12.38,13.23,74.53,0,110.5,13.25,13.18,70.9
"2010-09-19 00:35:00",173171,2.885,100.5,1.047,0.052,13.71,105.1354,12.42,13.16,74.32,0,110.5,13.29,13.21,62.5
"2010-09-19 00:35:30",173172,2.807,99.2,1.586,0.051,13.7,105.1368,12.42,13.18,74.35,0,110.5,13.3,13.22,61.2
"2010-09-19 00:36:00",173173,3.575,103.5,6.914,1.251,14.85,105.1383,12.43,13.19,74.31,0,110.5,13.26,13.22,65.5
"2010-09-19 00:36:30",173174,4.345,104.4,7.104,1.402,16.46,105.1383,12.43,13.42,74.56,0,110.5,13.26,13.22,66.4
"2010-09-19 00:37:00",173175,4.742,107.3,5.46,1.22,16.88,105.1386,12.43,13.38,74.53,0,110.5,13.26,13.22,69.3
"2010-09-19 00:37:30",173176,3.887,101.9,7.381,1.35,14.76,105.1386,12.43,13.35,74.55,0,110.5,13.26,13.22,63.9
"2010-09-19 00:38:00",173177,2.831,96.7,4.23,0.148,12.05,105.1361,12.42,13.22,74.44,0,110.5,13.3,13.22,58.7
"2010-09-19 00:38:30",173178,2.676,97.2,1.342,0.084,12.02,105.1386,12.43,13.21,74.24,0,110.5,13.3,13.22,59.2
"2010-09-19 00:39:00",173179,2.562,95.9,1.486,0.086,12.24,105.1386,12.43,13.21,74.15,0,110.5,13.3,13.22,57.9
"2010-09-19 00:39:30",173180,2.494,95.4,1.457,0.098,12.48,105.1386,12.43,13.22,74.12,0,110.5,13.3,13.22,57.4
"2010-09-19 00:40:00",173181,2.896,99.5,6.495,1.101,13.84,105.1386,12.43,13.24,74.01,0,110.5,13.26,13.22,61.5
"2010-09-19 00:40:30",173182,2.68,100.8,4.506,0.959,14.13,105.1386,12.43,13.38,74.08,0,110.5,13.26,13.22,62.8
"2010-09-19 00:41:00",173183,3.169,102.9,6.737,1.374,15.26,105.1386,12.43,13.25,73.84,0,110.5,13.26,13.22,64.9
"2010-09-19 00:41:30",173184,1.991,99.3,3.193,0.126,13.46,105.1386,12.43,13.25,73.73,0,110.5,13.3,13.22,61.3
"2010-09-19 00:42:00",173185,1.943,100.3,1.807,0.057,13.39,105.1386,12.43,13.26,73.62,0,110.5,13.3,13.22,62.3
"2010-09-19 00:42:30",173186,1.959,99.4,2.734,0.08,13.49,105.1389,12.43,13.26,73.56,0,110.5,13.3,13.22,61.4
"2010-09-19 00:43:00",173187,2.886,100.8,6.935,1.306,14.76,105.1392,12.43,13.26,73.56,0,110.5,13.27,13.22,62.8
"2010-09-19 00:43:30",173188,3.454,110.2,7.561,1.352,16.28,105.142,12.44,13.56,73.64,0,110.5,13.27,13.23,72.2
"2010-09-19 00:44:00",173189,2.68,104.2,5.759,1.075,13.54,105.1609,12.48,13.34,73.29,0,110.5,13.27,13.28,66.2
"2010-09-19 00:44:30",173190,2.285,102.5,1.602,0.056,12.8,105.1716,12.51,13.3,73.13,0,110.5,13.3,13.31,64.5
"2010-09-19 00:45:00",173191,3.39,112,6.475,1.271,14.34,105.1724,12.51,13.46,73.18,0,110.5,13.27,13.31,74.0
"2010-09-19 00:45:30",173192,2.648,111.3,0.709,0.053,12.59,105.1724,12.51,13.41,73.01,0,110.5,13.3,13.31,73.3
"2010-09-19 00:46:00",173193,2.7,112.6,1.053,0.046,12.43,105.1733,12.52,13.34,72.83,0,110.5,13.3,13.31,74.6
"2010-09-19 00:46:30",173194,2.652,114.1,0.861,0.042,12.67,105.1873,12.55,13.36,72.74,0,110.5,13.3,13.35,76.1
"2010-09-19 00:47:00",173195,3.323,120.5,6.077,1.164,14.1,105.2017,12.59,13.38,72.69,0,110.5,13.26,13.38,82.5
"2010-09-19 00:47:30",173196,3.762,124.5,6.603,1.32,15.72,105.2065,12.6,13.55,72.76,0,110.5,13.26,13.40,86.5
"2010-09-19 00:48:00",173197,2.764,118,0.87,0.046,13.82,105.2065,12.6,13.41,72.5,0,110.5,13.3,13.40,80.0
"2010-09-19 00:48:30",173198,2.692,117.7,1.153,0.06,13.73,105.2062,12.6,13.43,72.41,0,110.5,13.29,13.40,79.7
"2010-09-19 00:49:00",173199,2.788,117.8,0.817,0.071,13.8,105.2065,12.6,13.45,72.29,0,110.5,13.3,13.40,79.8
"2010-09-19 00:49:30",173200,3.741,122.8,6.335,1.304,15.14,105.211,12.61,13.47,72.22,0,110.5,13.26,13.41,84.8
"2010-09-19 00:50:00",173201,4.236,126.7,6.783,1.366,16.99,105.2322,12.67,13.75,72.43,0,110.5,13.26,13.46,88.7
"2010-09-19 00:50:30",173202,3.633,117.1,8.36,1.335,14.8,105.2389,12.68,13.49,72.04,0,110.5,13.26,13.48,79.1
"2010-09-19 00:51:00",173203,3.712,114.2,6.329,1.309,14.87,105.2403,12.69,13.61,72.09,0,110.5,13.27,13.48,76.2
"2010-09-19 00:51:30",173204,3.16,108.4,5.762,1.13,14.29,105.2424,12.69,13.66,72.06,0,110.5,13.27,13.49,70.4
"2010-09-19 00:52:00",173205,2.355,103.2,1.602,0.049,12.73,105.2232,12.64,13.5,71.94,0,110.5,13.31,13.44,65.2
"2010-09-19 00:52:30",173206,2.284,100.2,0.706,0.053,12.84,105.2154,12.62,13.5,71.97,0,110.5,13.31,13.42,62.2
"2010-09-19 00:53:00",173207,2.336,100.8,4.591,0.678,13.74,105.2163,12.63,13.63,72.15,0,110.4,13.27,13.42,62.8
"2010-09-19 00:53:30",173208,2.993,104.4,6.155,1.257,14.63,105.2175,12.63,13.54,72.11,0,110.5,13.27,13.43,66.4
"2010-09-19 00:54:00",173209,2.687,103.5,5.469,0.926,14.68,105.2211,12.64,13.54,72.09,0,110.5,13.27,13.43,65.5
"2010-09-19 00:54:30",173210,2.404,99.5,1.214,0.069,13.67,105.2209,12.64,13.45,72.01,0,110.4,13.31,13.43,61.5
"2010-09-19 00:55:00",173211,2.399,100.7,1.115,0.019,13.64,105.2276,12.65,13.46,71.98,0,110.4,13.31,13.45,62.7
"2010-09-19 00:55:30",173212,3.254,110.6,8.18,1.242,15.42,105.2359,12.68,13.63,72.12,0,110.4,13.27,13.47,72.6
"2010-09-19 00:56:00",173213,3.677,114.1,7.363,1.352,16.14,105.2373,12.68,13.7,72.13,0,110.4,13.27,13.48,76.1
"2010-09-19 00:56:30",173214,3.699,111,6.637,1.3,15.53,105.2412,12.69,13.62,71.95,0,110.4,13.27,13.49,73.0
"2010-09-19 00:57:00",173215,2.485,102.2,1.096,0.019,12.92,105.2418,12.69,13.51,71.77,0,110.4,13.31,13.49,64.2
"2010-09-19 00:57:30",173216,3.514,104.7,7.074,1.346,15.02,105.2418,12.69,13.63,71.86,0,110.4,13.28,13.49,66.7
"2010-09-19 00:58:00",173217,2.675,99.9,4.441,0.822,13.72,105.2418,12.69,13.64,71.91,0,110.4,13.28,13.49,61.9
"2010-09-19 00:58:30",173218,2.487,98.4,0.802,0.04,12.95,105.2333,12.67,13.46,71.81,0,110.4,13.32,13.47,60.4
"2010-09-19 00:59:00",173219,3.059,101.6,5.628,1.102,13.74,105.2139,12.62,13.46,71.86,0,110.4,13.28,13.42,63.6
"2010-09-19 00:59:30",173220,3.521,108.7,7.516,1.325,15.4,105.208,12.6,13.6,72.04,0,110.4,13.28,13.40,70.7
"2010-09-19 01:00:00",173221,2.465,105.4,0.449,0.036,13.65,105.208,12.6,13.45,71.91,0,110.4,13.32,13.40,67.4
"2010-09-19 01:00:30",173222,2.521,105.1,0.862,0.036,13.59,105.208,12.6,13.46,71.9,0,110.4,13.32,13.40,67.1
"2010-09-19 01:01:00",173223,3.437,110.6,6.894,1.277,15.74,105.208,12.6,13.63,72.1,0,110.4,13.28,13.40,72.6
"2010-09-19 01:01:30",173224,4.348,113.7,6.758,1.344,16.58,105.208,12.6,13.62,72.1,0,110.4,13.28,13.40,75.7
"2010-09-19 01:02:00",173225,4.257,112.4,7.21,1.338,16.11,105.208,12.6,13.52,71.95,0,110.4,13.28,13.40,74.4
"2010-09-19 01:02:30",173226,2.805,104.9,0.708,0.033,13.2,105.208,12.6,13.46,71.87,0,110.4,13.32,13.40,66.9
"2010-09-19 01:03:00",173227,2.774,101.1,2.593,0.061,12.97,105.208,12.6,13.49,71.85,0,110.4,13.32,13.40,63.1
"2010-09-19 01:03:30",173228,3.664,100.6,7.716,1.317,14.86,105.208,12.6,13.54,71.87,0,110.4,13.28,13.40,62.6
"2010-09-19 01:04:00",173229,3.569,95.8,6.947,1.249,14.95,105.208,12.6,13.58,71.98,0,110.4,13.28,13.40,57.8
"2010-09-19 01:04:30",173230,2.774,87,0.734,0.046,13,105.1998,12.58,13.44,71.95,0,110.4,13.32,13.38,49.0
"2010-09-19 01:05:00",173231,3.858,92.1,6.919,1.332,15.12,105.1747,12.52,13.57,72.18,0,110.4,13.28,13.32,54.1
"2010-09-19 01:05:30",173232,3.673,90.6,6.055,1.276,15.68,105.1742,12.52,13.53,72.31,0,110.4,13.28,13.31,52.6
"2010-09-19 01:06:00",173233,2.721,84.3,0.934,0.074,13.72,105.1632,12.49,13.39,72.37,0,110.4,13.32,13.29,46.3
"2010-09-19 01:06:30",173234,2.949,84.9,3.045,0.744,13.88,105.1435,12.44,13.46,72.67,0,110.4,13.28,13.24,46.9
"2010-09-19 01:07:00",173235,4.068,92.3,6.698,1.326,15.65,105.1406,12.43,13.48,72.73,0,110.4,13.29,13.23,54.3
"2010-09-19 01:07:30",173236,4.003,93.5,6.979,1.374,15.28,105.1409,12.43,13.43,72.7,0,110.4,13.29,13.23,55.5
"2010-09-19 01:08:00",173237,2.624,88.2,0.93,0.042,12.86,105.1421,12.44,13.41,72.66,0,110.4,13.33,13.23,50.2
"2010-09-19 01:08:30",173238,2.664,87.9,1.007,0.068,12.68,105.1454,12.44,13.32,72.6,0,110.4,13.33,13.24,49.9
"2010-09-19 01:09:00",173239,2.735,91,2.458,0.065,12.75,105.1483,12.45,13.31,72.56,0,110.4,13.33,13.25,53.0
"2010-09-19 01:09:30",173240,3.782,97.1,6.63,1.27,14.46,105.1552,12.47,13.34,72.55,0,110.4,13.29,13.27,59.1
"2010-09-19 01:10:00",173241,4.063,100,6.963,1.383,15.16,105.1593,12.48,13.42,72.62,0,110.4,13.29,13.28,62.0
"2010-09-19 01:10:30",173242,2.64,100.2,2.283,0.087,13.21,105.1647,12.49,13.31,72.42,0,110.4,13.33,13.29,62.2
"2010-09-19 01:11:00",173243,2.851,108,5.567,0.951,14.26,105.1664,12.5,13.43,72.51,0,110.3,13.29,13.29,70.0
"2010-09-19 01:11:30",173244,3.507,116.1,5.395,1.281,15.17,105.1679,12.5,13.35,72.3,0,110.4,13.29,13.30,78.1
"2010-09-19 01:12:00",173245,3.224,118.3,5.488,1.104,15.12,105.1759,12.52,13.5,72.23,0,110.4,13.3,13.32,80.3
"2010-09-19 01:12:30",173246,3.374,114.8,7.253,1.232,14.39,105.2026,12.59,13.41,72.01,0,110.4,13.3,13.39,76.8
"2010-09-19 01:13:00",173247,4.032,117.6,7.833,1.393,15.72,105.2088,12.61,13.56,72.08,0,110.4,13.3,13.40,79.6
"2010-09-19 01:13:30",173248,2.928,113.1,3.54,0.552,13.61,105.2097,12.61,13.56,71.9,0,110.4,13.3,13.41,75.1
"2010-09-19 01:14:00",173249,2.824,109.7,1.064,0.027,12.73,105.2103,12.61,13.43,71.66,0,110.3,13.33,13.41,71.7
"2010-09-19 01:14:30",173250,2.725,106.8,0.64,0.028,12.9,105.2213,12.64,13.44,71.62,0,110.4,13.33,13.44,68.8
"2010-09-19 01:15:00",173251,2.688,106.5,0.524,0.033,13.18,105.2205,12.64,13.44,71.57,0,110.3,13.3,13.43,68.5
"2010-09-19 01:15:30",173252,3.703,111.4,6.923,1.31,15.62,105.2131,12.62,13.6,71.68,0,110.3,13.3,13.41,73.4
"2010-09-19 01:16:00",173253,2.501,105.5,0.439,0.023,13.53,105.2103,12.61,13.45,71.55,0,110.3,13.33,13.41,67.5
"2010-09-19 01:16:30",173254,2.472,103.4,0.702,0.032,13.48,105.2097,12.61,13.46,71.58,0,110.3,13.33,13.41,65.4
"2010-09-19 01:17:00",173255,3.442,108.5,7.466,1.309,15.63,105.2097,12.61,13.59,71.69,0,110.3,13.3,13.41,70.5
"2010-09-19 01:17:30",173256,2.49,100.3,0.524,0,13.81,105.2097,12.61,13.48,71.62,0,110.3,13.33,13.41,62.3
"2010-09-19 01:18:00",173257,3.786,107.9,7.038,1.352,15.78,105.2095,12.61,13.61,71.72,0,110.3,13.3,13.40,69.9
"2010-09-19 01:18:30",173258,3.578,106.4,6.381,1.315,14.66,105.2086,12.61,13.43,71.57,0,110.3,13.3,13.40,68.4
"2010-09-19 01:19:00",173259,3.542,106.2,6.2,1.246,14.97,105.2069,12.6,13.6,71.73,0,110.3,13.3,13.40,68.2
"2010-09-19 01:19:30",173260,2.94,100.5,4.563,0.932,13,105.1945,12.57,13.42,71.58,0,110.3,13.3,13.37,62.5
"2010-09-19 01:20:00",173261,2.519,96.2,1.185,0.029,12.63,105.1824,12.54,13.42,71.63,0,110.3,13.33,13.34,58.2
"2010-09-19 01:20:30",173262,2.444,94.6,0.799,0.043,12.82,105.1759,12.52,13.41,71.71,0,110.3,13.33,13.32,56.6
"2010-09-19 01:21:00",173263,2.355,95.2,1.337,0.047,13.47,105.1759,12.52,13.5,71.86,0,110.3,13.33,13.32,57.2
"2010-09-19 01:21:30",173264,3.453,97.7,7.038,1.323,15.41,105.1759,12.52,13.44,71.88,0,110.3,13.3,13.32,59.7
"2010-09-19 01:22:00",173265,2.511,90.9,4.299,0.691,14.22,105.1635,12.49,13.49,72,0,110.3,13.3,13.29,52.9
"2010-09-19 01:22:30",173266,3.207,91.5,6.116,1.311,15.36,105.1432,12.44,13.52,72.18,0,110.3,13.3,13.23,53.5
"2010-09-19 01:23:00",173267,3.307,90.5,6.821,1.344,15.87,105.1421,12.44,13.46,72.36,0,110.3,13.3,13.23,52.5
"2010-09-19 01:23:30",173268,3.239,89,6.844,1.344,15.7,105.1342,12.42,13.42,72.51,0,110.3,13.3,13.21,51.0
"2010-09-19 01:24:00",173269,2.232,86,1.007,0.082,13.11,105.1111,12.36,13.3,72.53,0,110.3,13.34,13.15,48.0
"2010-09-19 01:24:30",173270,3.439,94.8,7.75,1.317,15.14,105.11,12.35,13.47,72.7,0,110.3,13.3,13.15,56.8
"2010-09-19 01:25:00",173271,2.758,91.4,3.686,0.779,12.94,105.1106,12.36,13.26,72.51,0,110.3,13.3,13.15,53.4
"2010-09-19 01:25:30",173272,2.703,92.1,0.595,0.092,12.43,105.1154,12.37,13.26,72.5,0,110.3,13.34,13.16,54.1
"2010-09-19 01:26:00",173273,2.822,92.9,0.585,0.048,12.46,105.1162,12.37,13.26,72.45,0,110.3,13.34,13.17,54.9
"2010-09-19 01:26:30",173274,2.723,94.2,0.592,0.062,12.83,105.1189,12.38,13.25,72.39,0,110.3,13.35,13.17,56.2
"2010-09-19 01:27:00",173275,2.654,93.7,0.505,0.047,13.22,105.118,12.37,13.28,72.39,0,110.3,13.35,13.17,55.7
"2010-09-19 01:27:30",173276,3.448,96.6,6.392,1.261,14.83,105.1198,12.38,13.35,72.43,0,110.3,13.31,13.17,58.6
"2010-09-19 01:28:00",173277,3.689,98.1,6.576,1.301,15.83,105.1222,12.39,13.34,72.4,0,110.3,13.31,13.18,60.1
"2010-09-19 01:28:30",173278,3.852,97.9,6.972,1.353,16.14,105.1245,12.39,13.44,72.49,0,110.3,13.31,13.19,59.9
"2010-09-19 01:29:00",173279,4.244,100.4,7.177,1.339,16.61,105.1275,12.4,13.5,72.54,0,110.3,13.31,13.19,62.4
"2010-09-19 01:29:30",173280,2.891,97.1,4.761,1.043,14.59,105.1314,12.41,13.31,72.33,0,110.3,13.31,13.20,59.1
"2010-09-19 01:30:00",173281,2.29,96.1,2.686,0.183,13.34,105.1352,12.42,13.38,72.42,0,110.3,13.31,13.21,58.1
"2010-09-19 01:30:30",173282,3.343,102,6.437,1.397,14.35,105.1397,12.43,13.31,72.38,0,110.3,13.31,13.23,64.0
"2010-09-19 01:31:00",173283,1.9,97.4,1.043,0.038,12.25,105.1432,12.44,13.27,72.4,0,110.3,13.35,13.23,59.4
"2010-09-19 01:31:30",173284,2.107,100.6,0.619,0.064,12.42,105.1401,12.43,13.24,72.38,0,110.3,13.35,13.23,62.6
"2010-09-19 01:32:00",173285,2.197,102.1,0.476,0.038,12.8,105.139,12.43,13.25,72.34,0,110.3,13.35,13.22,64.1
"2010-09-19 01:32:30",173286,2.243,102.8,0.523,0.038,13.13,105.1418,12.44,13.24,72.34,0,110.3,13.35,13.23,64.8
"2010-09-19 01:33:00",173287,2.265,101.3,0.892,0.032,13.51,105.1435,12.44,13.24,72.33,0,110.3,13.35,13.24,63.3
"2010-09-19 01:33:30",173288,3.36,106.3,7.157,1.355,15.89,105.1438,12.44,13.38,72.44,0,110.3,13.31,13.24,68.3
"2010-09-19 01:34:00",173289,2.283,101.2,0.321,0.002,13.92,105.1435,12.44,13.32,72.34,0,110.3,13.32,13.24,63.2
"2010-09-19 01:34:30",173290,3.587,108.9,6.791,1.335,16.53,105.1438,12.44,13.5,72.43,0,110.3,13.31,13.24,70.9
"2010-09-19 01:35:00",173291,4.276,110.6,6.326,1.098,17.22,105.1438,12.44,13.46,72.31,0,110.3,13.31,13.24,72.6
"2010-09-19 01:35:30",173292,2.054,99.9,2.418,0.264,13.72,105.1438,12.44,13.39,72.22,0,110.3,13.32,13.24,61.9
"2010-09-19 01:36:00",173293,3.117,102.2,8.14,1.421,15.07,105.1438,12.44,13.35,72.22,0,110.3,13.31,13.24,64.2
"2010-09-19 01:36:30",173294,1.649,89.5,3.499,0.059,12.57,105.1382,12.43,13.34,72.41,0,110.3,13.35,13.22,51.5
"2010-09-19 01:37:00",173295,1.411,81.6,1.069,0.038,12.19,105.108,12.35,13.24,72.86,0,110.3,13.34,13.14,43.6
"2010-09-19 01:37:30",173296,1.375,81.9,0.745,0.025,12.3,105.0781,12.27,13.2,73.19,0,110.3,13.35,13.07,43.9
"2010-09-19 01:38:00",173297,1.487,85.7,1.724,0.054,12.49,105.0499,12.2,13.15,73.33,0,110.3,13.35,12.99,47.7
"2010-09-19 01:38:30",173298,1.521,94.1,3.508,0.031,12.79,105.0423,12.18,13.12,73.26,0,110.3,13.35,12.98,56.1
"2010-09-19 01:39:00",173299,1.725,102,1.315,0.109,13.27,105.0429,12.18,13.1,73.06,0,110.3,13.35,12.98,64.0
"2010-09-19 01:39:30",173300,2.078,105.5,0.89,0.082,13.63,105.0623,12.23,13.1,72.85,0,110.3,13.35,13.03,67.5
"2010-09-19 01:40:00",173301,2.699,108.8,5.808,0.972,14.9,105.0761,12.27,13.26,72.79,0,110.3,13.31,13.06,70.8
"2010-09-19 01:40:30",173302,3.869,111.7,7.345,1.35,16.69,105.0818,12.28,13.35,72.68,0,110.3,13.31,13.08,73.7
"2010-09-19 01:41:00",173303,3.823,110.9,6.863,1.322,16.68,105.1024,12.33,13.45,72.64,0,110.3,13.32,13.13,72.9
"2010-09-19 01:41:30",173304,3.333,106,6.648,1.311,14.9,105.1097,12.35,13.3,72.45,0,110.3,13.32,13.15,68.0
"2010-09-19 01:42:00",173305,2.889,103.4,6.392,1.1,14.72,105.11,12.35,13.39,72.56,0,110.3,13.32,13.15,65.4
"2010-09-19 01:42:30",173306,3.26,102.4,7.315,1.238,14.01,105.11,12.35,13.2,72.39,0,110.3,13.32,13.15,64.4
"2010-09-19 01:43:00",173307,2.58,98.3,3.094,0.136,12.26,105.1094,12.35,13.18,72.42,0,110.3,13.36,13.15,60.3
"2010-09-19 01:43:30",173308,2.72,98.4,6.367,0.112,12.23,105.0933,12.31,13.19,72.48,0,110.3,13.36,13.11,60.4
"2010-09-19 01:44:00",173309,2.457,95.3,5.588,0.198,12.73,105.0761,12.27,13.18,72.6,0,110.3,13.36,13.06,57.3
"2010-09-19 01:44:30",173310,2.414,92.7,3.359,0.135,13.04,105.0761,12.27,13.15,72.61,0,110.3,13.36,13.06,54.7
"2010-09-19 01:45:00",173311,2.914,91.5,2.606,0.148,13.28,105.0728,12.26,13.15,72.76,0,110.3,13.36,13.05,53.5
"2010-09-19 01:45:30",173312,3.78,95.2,5.468,1.272,14.47,105.0468,12.19,13.16,72.78,0,110.3,13.33,12.99,57.2
"2010-09-19 01:46:00",173313,4.812,98.8,6.843,1.292,17.45,105.0423,12.18,13.39,73.16,0,110.3,13.33,12.98,60.8
"2010-09-19 01:46:30",173314,4.165,94,7.368,1.364,15.28,105.0426,12.18,13.15,72.94,0,110.3,13.33,12.98,56.0
"2010-09-19 01:47:00",173315,4.178,95.7,6.649,1.34,16,105.0423,12.18,13.31,73.12,0,110.3,13.33,12.98,57.7
"2010-09-19 01:47:30",173316,3.744,96.1,6.757,1.361,16.1,105.0331,12.16,13.28,73.22,0,110.3,13.33,12.95,58.1
"2010-09-19 01:48:00",173317,2.228,85.6,1.219,0.095,12.19,105.0111,12.1,13.05,73.28,0,110.3,13.36,12.90,47.6
"2010-09-19 01:48:30",173318,2.37,87.4,1.16,0.078,11.91,105.0135,12.11,13.03,73.38,0,110.3,13.36,12.90,49.4
"2010-09-19 01:49:00",173319,2.462,88.9,1.472,0.114,12.02,105.0104,12.1,13,73.48,0,110.3,13.36,12.89,50.9
"2010-09-19 01:49:30",173320,2.55,94.6,3.012,0.072,12.46,104.9891,12.04,12.99,73.34,0,110.3,13.36,12.84,56.6